Time,TemperatureF,DewpointF,PressureIn,WindDirection,WindDirectionDegrees,WindSpeedMPH,WindSpeedGustMPH,Humidity,HourlyPrecipIn,Conditions,Clouds,dailyrainin,SoftwareType,DateUTC
2013-11-17 00:00:00,59.5,56.3,24.97,SSE,148,11.0,14.0,89,0.00,,---,0.00,VWS V14.00,2013-11-17 05:00:00,
2013-11-17 00:01:00,59.0,55.8,24.97,SE,141,14.0,14.0,89,0.00,,---,0.04,VWS V14.00,2013-11-17 05:01:00,
2013-11-17 00:02:00,59.3,56.1,24.97,SE,142,11.0,14.0,89,0.00,,---,0.04,VWS V14.00,2013-11-17 05:02:00,
2013-11-17 00:03:00,59.5,56.3,24.97,SE,141,7.0,14.0,89,0.00,,---,0.04,VWS V14.00,2013-11-17 05:03:00,
2013-11-17 00:07:00,59.4,56.2,24.97,SE,138,10.0,14.0,89,0.00,,---,0.04,VWS V14.00,2013-11-17 05:07:00,
2013-11-17 00:12:00,59.5,56.3,24.97,SSE,148,9.0,12.0,89,0.00,,---,0.00,VWS V14.00,2013-11-17 05:12:00,
2013-11-17 00:17:00,59.6,56.0,24.97,SSE,157,6.0,13.0,88,0.00,,---,0.00,VWS V14.00,2013-11-17 05:17:00,
2013-11-17 00:22:00,59.5,56.0,24.97,SSE,161,6.0,13.0,88,0.00,,---,0.00,VWS V14.00,2013-11-17 05:22:00,
2013-11-17 00:27:00,59.9,56.3,24.97,SSE,157,11.0,16.0,88,0.00,,---,0.00,VWS V14.00,2013-11-17 05:27:00,
2013-11-17 00:30:00,60.1,56.2,24.97,SSE,164,8.0,16.0,87,0.00,,---,0.00,VWS V14.00,2013-11-17 05:30:00,
2013-11-17 00:32:00,60.2,56.6,24.97,SSE,153,9.0,16.0,88,0.00,,---,0.00,VWS V14.00,2013-11-17 05:32:00,
2013-11-17 00:37:00,60.1,56.2,24.97,SSE,167,10.0,16.0,87,0.00,,---,0.00,VWS V14.00,2013-11-17 05:37:00,
2013-11-17 00:42:00,60.7,57.1,24.97,SSE,165,11.0,18.0,88,0.00,,---,0.00,VWS V14.00,2013-11-17 05:42:00,
2013-11-17 00:47:00,60.9,57.0,24.97,South,169,11.0,18.0,87,0.00,,---,0.00,VWS V14.00,2013-11-17 05:47:00,
2013-11-17 00:52:00,60.8,56.9,24.97,SSE,164,13.0,18.0,87,0.00,,---,0.00,VWS V14.00,2013-11-17 05:52:00,
2013-11-17 00:57:00,60.9,57.0,24.97,SSE,166,9.0,18.0,87,0.00,,---,0.00,VWS V14.00,2013-11-17 05:57:00,
2013-11-17 01:00:00,61.3,56.8,24.97,SSE,163,10.0,19.0,85,0.00,,---,0.00,VWS V14.00,2013-11-17 06:00:00,
2013-11-17 01:03:00,61.5,57.6,24.97,SSE,156,11.0,18.0,87,0.00,,---,0.00,VWS V14.00,2013-11-17 06:03:00,
2013-11-17 01:08:00,61.4,56.9,24.97,SSE,167,9.0,19.0,85,0.00,,---,0.00,VWS V14.00,2013-11-17 06:08:00,
2013-11-17 01:13:00,61.1,56.9,24.97,SSE,164,12.0,16.0,86,0.00,,---,0.00,VWS V14.00,2013-11-17 06:13:00,
2013-11-17 01:18:00,60.8,56.6,24.97,SSE,148,12.0,16.0,86,0.00,,---,0.00,VWS V14.00,2013-11-17 06:18:00,
2013-11-17 01:23:00,61.1,56.6,24.97,SSE,161,15.0,17.0,85,0.00,,---,0.00,VWS V14.00,2013-11-17 06:23:00,
2013-11-17 01:28:00,61.2,57.0,24.97,SSE,155,15.0,18.0,86,0.00,,---,0.00,VWS V14.00,2013-11-17 06:28:00,
2013-11-17 01:30:00,61.2,57.0,24.97,SSE,159,13.0,19.0,86,0.00,,---,0.00,VWS V14.00,2013-11-17 06:30:00,
2013-11-17 01:33:00,61.1,56.6,24.97,SSE,160,7.0,19.0,85,0.00,,---,0.00,VWS V14.00,2013-11-17 06:33:00,
2013-11-17 01:38:00,61.2,57.0,24.97,SSE,168,9.0,13.0,86,0.00,,---,0.00,VWS V14.00,2013-11-17 06:38:00,
2013-11-17 01:43:00,62.0,57.8,24.97,South,179,10.0,17.0,86,0.00,,---,0.00,VWS V14.00,2013-11-17 06:43:00,
2013-11-17 01:48:00,62.9,58.0,24.97,SSE,155,11.0,22.0,84,0.00,,---,0.00,VWS V14.00,2013-11-17 06:48:00,
2013-11-17 01:53:00,63.0,57.8,24.97,SSE,159,15.0,22.0,83,0.00,,---,0.00,VWS V14.00,2013-11-17 06:53:00,
2013-11-17 01:58:00,62.6,58.0,24.97,South,173,17.0,23.0,85,0.00,,---,0.00,VWS V14.00,2013-11-17 06:58:00,
2013-11-17 02:00:00,62.6,57.7,24.97,SSE,168,11.0,23.0,84,0.00,,---,0.00,VWS V14.00,2013-11-17 07:00:00,
2013-11-17 02:03:00,62.7,57.5,24.97,SSE,159,12.0,23.0,83,0.00,,---,0.00,VWS V14.00,2013-11-17 07:03:00,
2013-11-17 02:08:00,62.5,57.3,24.97,SSE,159,12.0,14.0,83,0.00,,---,0.00,VWS V14.00,2013-11-17 07:08:00,
2013-11-17 02:14:00,62.9,57.3,24.97,SSE,162,12.0,20.0,82,0.00,,---,0.00,VWS V14.00,2013-11-17 07:14:00,
2013-11-17 02:19:00,63.4,57.8,24.97,SSE,160,13.0,25.0,82,0.00,,---,0.00,VWS V14.00,2013-11-17 07:19:00,
2013-11-17 02:24:00,62.7,57.1,24.97,SSE,159,14.0,25.0,82,0.00,,---,0.00,VWS V14.00,2013-11-17 07:24:00,
2013-11-17 02:29:00,62.7,57.5,24.97,SE,146,25.0,27.0,83,0.00,,---,0.01,VWS V14.00,2013-11-17 07:29:00,
2013-11-17 02:30:00,63.8,58.2,24.97,SSW,208,15.0,29.0,82,0.00,,---,0.01,VWS V14.00,2013-11-17 07:30:00,
2013-11-17 02:34:00,63.2,57.6,24.97,SSE,159,16.0,27.0,82,0.00,,---,0.01,VWS V14.00,2013-11-17 07:34:00,
2013-11-17 02:39:00,63.9,58.3,24.97,SW,236,12.0,18.0,82,0.00,,---,0.01,VWS V14.00,2013-11-17 07:39:00,
2013-11-17 02:44:00,64.0,58.7,24.97,WSW,243,5.0,18.0,83,0.00,,---,0.01,VWS V14.00,2013-11-17 07:44:00,
2013-11-17 02:49:00,64.0,58.7,24.97,SW,232,0.0,18.0,83,0.00,,---,0.02,VWS V14.00,2013-11-17 07:49:00,
2013-11-17 02:54:00,63.7,58.8,24.97,SW,229,2.0,18.0,84,0.00,,---,0.02,VWS V14.00,2013-11-17 07:54:00,
2013-11-17 02:59:00,63.4,58.5,24.97,West,266,3.0,18.0,84,0.07,,---,0.03,VWS V14.00,2013-11-17 07:59:00,
2013-11-17 03:00:00,62.5,57.9,24.97,West,269,0.0,18.0,85,0.05,,---,0.04,VWS V14.00,2013-11-17 08:00:00,
2013-11-17 03:04:00,62.8,58.2,24.97,SSW,199,0.0,18.0,85,0.07,,---,0.03,VWS V14.00,2013-11-17 08:04:00,
2013-11-17 03:09:00,62.5,57.9,24.97,West,270,2.0,2.0,85,0.05,,---,0.04,VWS V14.00,2013-11-17 08:09:00,
2013-11-17 03:14:00,62.2,58.0,24.97,West,269,0.0,3.0,86,0.05,,---,0.04,VWS V14.00,2013-11-17 08:14:00,
2013-11-17 03:19:00,62.1,58.2,24.97,West,269,0.0,3.0,87,0.05,,---,0.04,VWS V14.00,2013-11-17 08:19:00,
2013-11-17 03:24:00,62.0,58.1,24.97,West,269,0.0,3.0,87,0.04,,---,0.05,VWS V14.00,2013-11-17 08:24:00,
2013-11-17 03:29:00,61.7,57.8,24.97,South,181,2.0,6.0,87,0.04,,---,0.05,VWS V14.00,2013-11-17 08:29:00,
2013-11-17 03:30:00,62.3,58.4,24.97,South,171,12.0,12.0,87,0.04,,---,0.05,VWS V14.00,2013-11-17 08:30:00,
2013-11-17 03:34:00,61.8,57.9,24.97,SE,125,3.0,6.0,87,0.04,,---,0.05,VWS V14.00,2013-11-17 08:34:00,
2013-11-17 03:39:00,62.5,58.6,24.97,SSE,164,6.0,12.0,87,0.04,,---,0.05,VWS V14.00,2013-11-17 08:39:00,
2013-11-17 03:44:00,62.0,57.5,24.97,SSE,159,6.0,12.0,85,0.00,,---,0.06,VWS V14.00,2013-11-17 08:44:00,
2013-11-17 03:49:00,62.3,57.7,24.97,SSE,161,5.0,12.0,85,0.00,,---,0.06,VWS V14.00,2013-11-17 08:49:00,
2013-11-17 03:54:00,62.7,57.8,24.97,SSE,158,12.0,18.0,84,0.00,,---,0.06,VWS V14.00,2013-11-17 08:54:00,
2013-11-17 03:59:00,63.3,58.4,24.97,SSW,197,7.0,20.0,84,0.00,,---,0.06,VWS V14.00,2013-11-17 08:59:00,
2013-11-17 04:00:00,63.3,58.1,24.97,SSW,193,10.0,20.0,83,0.00,,---,0.06,VWS V14.00,2013-11-17 09:00:00,
2013-11-17 04:05:00,63.4,58.2,24.97,South,173,9.0,20.0,83,0.00,,---,0.06,VWS V14.00,2013-11-17 09:05:00,
2013-11-17 04:10:00,63.3,58.1,24.97,South,169,4.0,10.0,83,0.00,,---,0.06,VWS V14.00,2013-11-17 09:10:00,
2013-11-17 04:15:00,63.1,58.2,24.97,SSW,213,4.0,11.0,84,0.00,,---,0.07,VWS V14.00,2013-11-17 09:15:00,
2013-11-17 04:20:00,63.1,58.2,24.97,South,187,12.0,12.0,84,0.00,,---,0.07,VWS V14.00,2013-11-17 09:20:00,
2013-11-17 04:25:00,62.9,58.0,24.97,South,186,14.0,14.0,84,0.00,,---,0.07,VWS V14.00,2013-11-17 09:25:00,
2013-11-17 04:30:00,63.1,58.2,24.97,South,186,2.0,19.0,84,0.00,,---,0.07,VWS V14.00,2013-11-17 09:30:00,
2013-11-17 04:35:00,63.1,58.2,24.97,South,169,4.0,19.0,84,0.00,,---,0.07,VWS V14.00,2013-11-17 09:35:00,
2013-11-17 04:40:00,62.9,58.0,24.97,SSW,194,4.0,10.0,84,0.00,,---,0.07,VWS V14.00,2013-11-17 09:40:00,
2013-11-17 04:45:00,62.9,58.0,24.97,South,184,12.0,14.0,84,0.00,,---,0.07,VWS V14.00,2013-11-17 09:45:00,
2013-11-17 04:50:00,62.7,57.5,24.97,South,172,9.0,18.0,83,0.00,,---,0.07,VWS V14.00,2013-11-17 09:50:00,
2013-11-17 04:55:00,62.7,57.8,24.97,SSE,166,9.0,18.0,84,0.00,,---,0.07,VWS V14.00,2013-11-17 09:55:00,
2013-11-17 05:00:00,62.8,57.9,24.97,South,188,6.0,18.0,84,0.00,,---,0.07,VWS V14.00,2013-11-17 10:00:00,
2013-11-17 05:05:00,63.0,58.4,24.97,SSW,198,7.0,18.0,85,0.00,,---,0.08,VWS V14.00,2013-11-17 10:05:00,
2013-11-17 05:11:00,63.1,58.2,24.97,South,175,9.0,11.0,84,0.00,,---,0.08,VWS V14.00,2013-11-17 10:11:00,
2013-11-17 05:16:00,63.0,58.1,24.97,SSE,163,12.0,18.0,84,0.00,,---,0.08,VWS V14.00,2013-11-17 10:16:00,
2013-11-17 05:21:00,62.6,57.4,24.97,SSE,167,11.0,19.0,83,0.00,,---,0.08,VWS V14.00,2013-11-17 10:21:00,
2013-11-17 05:26:00,62.5,57.9,24.97,West,272,17.0,19.0,85,0.00,,---,0.08,VWS V14.00,2013-11-17 10:26:00,
2013-11-17 05:30:00,62.5,57.9,24.97,South,173,1.0,19.0,85,0.00,,---,0.08,VWS V14.00,2013-11-17 10:30:00,
2013-11-17 05:31:00,62.5,58.3,24.97,SSW,210,5.0,19.0,86,0.00,,---,0.08,VWS V14.00,2013-11-17 10:31:00,
2013-11-17 05:36:00,62.5,58.3,24.97,South,176,9.0,19.0,86,0.00,,---,0.08,VWS V14.00,2013-11-17 10:36:00,
2013-11-17 05:41:00,62.5,57.9,24.97,South,184,13.0,13.0,85,0.00,,---,0.08,VWS V14.00,2013-11-17 10:41:00,
2013-11-17 05:46:00,62.9,58.3,24.97,South,174,9.0,22.0,85,0.00,,---,0.08,VWS V14.00,2013-11-17 10:46:00,
2013-11-17 05:51:00,63.4,58.5,24.97,South,187,13.0,26.0,84,0.00,,---,0.08,VWS V14.00,2013-11-17 10:51:00,
2013-11-17 05:56:00,63.2,58.3,24.97,SSE,168,15.0,26.0,84,0.00,,---,0.08,VWS V14.00,2013-11-17 10:56:00,
2013-11-17 06:00:00,63.0,57.8,24.97,South,191,15.0,27.0,83,0.00,,---,0.08,VWS V14.00,2013-11-17 11:00:00,
2013-11-17 06:01:00,63.3,58.1,24.97,South,173,16.0,27.0,83,0.00,,---,0.08,VWS V14.00,2013-11-17 11:01:00,
2013-11-17 06:06:00,63.1,57.9,24.97,South,183,10.0,27.0,83,0.00,,---,0.08,VWS V14.00,2013-11-17 11:06:00,
2013-11-17 06:11:00,62.9,58.0,24.97,South,183,10.0,20.0,84,0.00,,---,0.08,VWS V14.00,2013-11-17 11:11:00,
2013-11-17 06:16:00,63.0,57.8,24.97,SSE,165,16.0,25.0,83,0.00,,---,0.08,VWS V14.00,2013-11-17 11:16:00,
2013-11-17 06:21:00,62.5,57.3,24.97,South,173,15.0,25.0,83,0.00,,---,0.08,VWS V14.00,2013-11-17 11:21:00,
2013-11-17 06:26:00,62.9,58.0,24.97,SSW,193,13.0,25.0,84,0.00,,---,0.08,VWS V14.00,2013-11-17 11:26:00,
2013-11-17 06:30:00,62.7,57.8,24.97,South,176,9.0,25.0,84,0.00,,---,0.08,VWS V14.00,2013-11-17 11:30:00,
2013-11-17 06:32:00,62.9,58.0,24.97,SSE,168,12.0,25.0,84,0.00,,---,0.08,VWS V14.00,2013-11-17 11:32:00,
2013-11-17 06:37:00,62.8,57.9,24.97,South,186,10.0,25.0,84,0.00,,---,0.08,VWS V14.00,2013-11-17 11:37:00,
2013-11-17 06:42:00,62.5,57.6,24.97,SSE,168,10.0,19.0,84,0.00,,---,0.08,VWS V14.00,2013-11-17 11:42:00,
2013-11-17 06:47:00,62.3,57.7,24.97,SSE,167,11.0,19.0,85,0.00,,---,0.08,VWS V14.00,2013-11-17 11:47:00,
2013-11-17 06:52:00,61.8,57.2,24.97,SSE,161,12.0,19.0,85,0.00,,---,0.08,VWS V14.00,2013-11-17 11:52:00,
2013-11-17 06:57:00,61.6,57.0,24.97,SSE,165,12.0,19.0,85,0.00,,---,0.08,VWS V14.00,2013-11-17 11:57:00,
2013-11-17 07:00:00,61.7,56.8,24.97,SSE,156,15.0,20.0,84,0.00,,---,0.08,VWS V14.00,2013-11-17 12:00:00,
2013-11-17 07:02:00,61.5,57.0,24.97,SSE,160,15.0,19.0,85,0.00,,---,0.08,VWS V14.00,2013-11-17 12:02:00,
2013-11-17 07:07:00,61.9,57.3,24.97,SSE,159,12.0,19.0,85,0.00,,---,0.08,VWS V14.00,2013-11-17 12:07:00,
2013-11-17 07:12:00,61.5,56.6,24.97,SSE,158,14.0,16.0,84,0.00,,---,0.08,VWS V14.00,2013-11-17 12:12:00,
2013-11-17 07:17:00,61.8,57.2,24.97,SSE,163,14.0,16.0,85,0.00,,---,0.08,VWS V14.00,2013-11-17 12:17:00,
2013-11-17 07:22:00,61.8,56.9,24.97,SSE,160,13.0,18.0,84,0.00,,---,0.08,VWS V14.00,2013-11-17 12:22:00,
2013-11-17 07:27:00,61.3,56.4,24.97,SSE,153,18.0,18.0,84,0.00,,---,0.08,VWS V14.00,2013-11-17 12:27:00,
2013-11-17 07:30:00,61.4,56.9,24.97,South,172,12.0,21.0,85,0.00,,---,0.09,VWS V14.00,2013-11-17 12:30:00,
2013-11-17 07:32:00,61.6,57.4,24.97,SSE,160,15.0,21.0,86,0.00,,---,0.08,VWS V14.00,2013-11-17 12:32:00,
2013-11-17 07:37:00,61.6,57.0,24.97,South,169,12.0,21.0,85,0.00,,---,0.09,VWS V14.00,2013-11-17 12:37:00,
2013-11-17 07:42:00,61.5,57.3,24.97,South,180,12.0,16.0,86,0.00,,---,0.09,VWS V14.00,2013-11-17 12:42:00,
2013-11-17 07:47:00,61.7,57.5,24.97,South,172,10.0,19.0,86,0.00,,---,0.09,VWS V14.00,2013-11-17 12:47:00,
2013-11-17 07:52:00,62.0,57.8,24.97,South,184,12.0,19.0,86,0.00,,---,0.09,VWS V14.00,2013-11-17 12:52:00,
2013-11-17 07:57:00,61.9,57.7,24.97,South,178,11.0,19.0,86,0.00,,---,0.09,VWS V14.00,2013-11-17 12:57:00,
2013-11-17 08:00:00,61.7,57.5,24.97,South,190,13.0,19.0,86,0.00,,---,0.09,VWS V14.00,2013-11-17 13:00:00,
2013-11-17 08:02:00,61.9,57.7,24.97,South,178,11.0,19.0,86,0.00,,---,0.09,VWS V14.00,2013-11-17 13:02:00,
2013-11-17 08:08:00,61.7,57.5,24.97,South,175,13.0,19.0,86,0.00,,---,0.09,VWS V14.00,2013-11-17 13:08:00,
2013-11-17 08:13:00,61.8,57.6,24.97,South,175,18.0,20.0,86,0.00,,---,0.09,VWS V14.00,2013-11-17 13:13:00,
2013-11-17 08:18:00,61.7,57.5,24.97,SSE,163,13.0,20.0,86,0.00,,---,0.09,VWS V14.00,2013-11-17 13:18:00,
2013-11-17 08:23:00,61.8,57.9,24.97,SSE,165,21.0,27.0,87,0.00,,---,0.09,VWS V14.00,2013-11-17 13:23:00,
2013-11-17 08:28:00,61.8,57.6,24.97,SSE,167,20.0,27.0,86,0.00,,---,0.09,VWS V14.00,2013-11-17 13:28:00,
2013-11-17 08:30:00,61.9,57.7,24.97,South,176,15.0,27.0,86,0.00,,---,0.09,VWS V14.00,2013-11-17 13:30:00,
2013-11-17 08:33:00,61.9,57.7,24.97,South,176,15.0,27.0,86,0.00,,---,0.09,VWS V14.00,2013-11-17 13:33:00,
2013-11-17 08:38:00,61.9,57.7,24.97,South,186,18.0,27.0,86,0.00,,---,0.09,VWS V14.00,2013-11-17 13:38:00,
2013-11-17 08:43:00,62.1,57.9,24.97,SSE,167,14.0,20.0,86,0.00,,---,0.09,VWS V14.00,2013-11-17 13:43:00,
2013-11-17 08:48:00,62.0,57.8,24.97,SSE,162,11.0,20.0,86,0.00,,---,0.09,VWS V14.00,2013-11-17 13:48:00,
2013-11-17 08:53:00,62.2,58.0,24.97,South,175,10.0,20.0,86,0.00,,---,0.09,VWS V14.00,2013-11-17 13:53:00,
2013-11-17 08:58:00,62.2,57.6,24.97,South,188,15.0,20.0,85,0.00,,---,0.09,VWS V14.00,2013-11-17 13:58:00,
2013-11-17 09:00:00,61.7,57.5,24.97,SSE,156,12.0,20.0,86,0.00,,---,0.09,VWS V14.00,2013-11-17 14:00:00,
2013-11-17 09:03:00,62.1,57.5,24.97,South,169,13.0,20.0,85,0.00,,---,0.09,VWS V14.00,2013-11-17 14:03:00,
2013-11-17 09:08:00,61.7,57.5,24.97,SSE,156,12.0,20.0,86,0.00,,---,0.09,VWS V14.00,2013-11-17 14:08:00,
2013-11-17 09:13:00,62.1,57.9,24.97,South,173,12.0,15.0,86,0.00,,---,0.09,VWS V14.00,2013-11-17 14:13:00,
2013-11-17 09:18:00,62.2,57.6,24.97,SSE,165,13.0,20.0,85,0.00,,---,0.09,VWS V14.00,2013-11-17 14:18:00,
2013-11-17 09:23:00,62.3,57.7,24.97,SSE,167,12.0,20.0,85,0.00,,---,0.09,VWS V14.00,2013-11-17 14:23:00,
2013-11-17 09:28:00,62.3,57.4,24.97,South,177,13.0,20.0,84,0.00,,---,0.09,VWS V14.00,2013-11-17 14:28:00,
2013-11-17 09:30:00,62.3,57.4,24.97,SSE,168,12.0,20.0,84,0.00,,---,0.09,VWS V14.00,2013-11-17 14:30:00,
2013-11-17 09:33:00,62.4,57.5,24.97,South,173,16.0,20.0,84,0.00,,---,0.09,VWS V14.00,2013-11-17 14:33:00,
2013-11-17 09:38:00,62.3,57.4,24.97,SSE,164,12.0,13.0,84,0.00,,---,0.09,VWS V14.00,2013-11-17 14:38:00,
2013-11-17 09:44:00,62.3,57.4,24.97,SE,140,11.0,19.0,84,0.00,,---,0.09,VWS V14.00,2013-11-17 14:44:00,
2013-11-17 09:49:00,62.5,57.6,24.97,SE,146,12.0,22.0,84,0.00,,---,0.09,VWS V14.00,2013-11-17 14:49:00,
2013-11-17 09:54:00,62.4,57.5,24.97,South,171,18.0,22.0,84,0.00,,---,0.09,VWS V14.00,2013-11-17 14:54:00,
2013-11-17 09:59:00,62.4,57.2,24.97,South,185,15.0,22.0,83,0.00,,---,0.09,VWS V14.00,2013-11-17 14:59:00,
2013-11-17 10:00:00,63.0,58.1,24.97,South,176,15.0,22.0,84,0.00,,---,0.09,VWS V14.00,2013-11-17 15:00:00,
2013-11-17 10:04:00,62.7,57.8,24.97,South,182,15.0,22.0,84,0.00,,---,0.09,VWS V14.00,2013-11-17 15:04:00,
2013-11-17 10:09:00,63.1,58.2,24.97,South,176,13.0,15.0,84,0.00,,---,0.09,VWS V14.00,2013-11-17 15:09:00,
2013-11-17 10:14:00,62.9,57.7,24.97,SSE,165,17.0,21.0,83,0.00,,---,0.09,VWS V14.00,2013-11-17 15:14:00,
2013-11-17 10:19:00,62.9,58.0,24.97,SSE,160,16.0,21.0,84,0.00,,---,0.09,VWS V14.00,2013-11-17 15:19:00,
2013-11-17 10:24:00,62.7,57.5,24.97,South,181,18.0,22.0,83,0.00,,---,0.09,VWS V14.00,2013-11-17 15:24:00,
2013-11-17 10:29:00,62.9,58.0,24.97,SSE,159,12.0,22.0,84,0.00,,---,0.09,VWS V14.00,2013-11-17 15:29:00,
2013-11-17 10:30:00,62.8,57.9,24.97,SSE,152,17.0,22.0,84,0.00,,---,0.09,VWS V14.00,2013-11-17 15:30:00,
2013-11-17 10:34:00,62.7,57.8,24.97,SSE,165,13.0,22.0,84,0.00,,---,0.09,VWS V14.00,2013-11-17 15:34:00,
2013-11-17 10:39:00,62.9,58.0,24.97,SSE,148,23.0,23.0,84,0.00,,---,0.09,VWS V14.00,2013-11-17 15:39:00,
2013-11-17 10:44:00,62.7,57.5,24.97,SSE,159,18.0,23.0,83,0.00,,---,0.09,VWS V14.00,2013-11-17 15:44:00,
2013-11-17 10:49:00,63.0,58.1,24.97,SSE,150,15.0,23.0,84,0.00,,---,0.09,VWS V14.00,2013-11-17 15:49:00,
2013-11-17 10:54:00,63.2,58.0,24.97,SSE,153,21.0,23.0,83,0.00,,---,0.09,VWS V14.00,2013-11-17 15:54:00,
2013-11-17 10:59:00,63.5,58.2,24.97,SSE,149,17.0,25.0,83,0.00,,---,0.09,VWS V14.00,2013-11-17 15:59:00,
2013-11-17 11:00:00,63.5,58.2,24.97,South,169,18.0,25.0,83,0.00,,---,0.09,VWS V14.00,2013-11-17 16:00:00,
2013-11-17 11:05:00,63.4,58.2,24.97,South,180,16.0,25.0,83,0.00,,---,0.09,VWS V14.00,2013-11-17 16:05:00,
2013-11-17 11:10:00,63.9,59.0,24.97,South,188,13.0,25.0,84,0.00,,---,0.09,VWS V14.00,2013-11-17 16:10:00,
2013-11-17 11:15:00,64.7,59.1,24.97,South,182,19.0,27.0,82,0.00,,---,0.09,VWS V14.00,2013-11-17 16:15:00,
2013-11-17 11:20:00,64.5,58.9,24.97,South,169,16.0,27.0,82,0.00,,---,0.09,VWS V14.00,2013-11-17 16:20:00,
2013-11-17 11:25:00,64.3,58.7,24.97,South,169,16.0,27.0,82,0.00,,---,0.09,VWS V14.00,2013-11-17 16:25:00,
2013-11-17 11:30:00,64.0,58.7,24.97,SSE,159,17.0,27.0,83,0.00,,---,0.09,VWS V14.00,2013-11-17 16:30:00,
2013-11-17 11:35:00,63.6,58.0,24.97,South,184,25.0,28.0,82,0.00,,---,0.09,VWS V14.00,2013-11-17 16:35:00,
2013-11-17 11:40:00,64.2,58.9,24.97,SSE,157,15.0,21.0,83,0.00,,---,0.09,VWS V14.00,2013-11-17 16:40:00,
2013-11-17 11:45:00,63.6,58.3,24.97,South,175,24.0,29.0,83,0.00,,---,0.09,VWS V14.00,2013-11-17 16:45:00,
2013-11-17 11:50:00,63.4,58.2,24.97,SSE,161,16.0,29.0,83,0.00,,---,0.09,VWS V14.00,2013-11-17 16:50:00,
2013-11-17 11:56:00,63.3,58.1,24.97,SE,142,20.0,29.0,83,0.00,,---,0.09,VWS V14.00,2013-11-17 16:56:00,
2013-11-17 12:00:00,63.2,58.0,24.97,SSE,163,14.0,29.0,83,0.00,,---,0.09,VWS V14.00,2013-11-17 17:00:00,
2013-11-17 12:01:00,63.4,58.5,24.97,SSE,160,16.0,29.0,84,0.00,,---,0.09,VWS V14.00,2013-11-17 17:01:00,
2013-11-17 12:06:00,63.5,58.6,24.97,South,174,16.0,29.0,84,0.00,,---,0.09,VWS V14.00,2013-11-17 17:06:00,
2013-11-17 12:11:00,63.6,59.0,24.97,South,169,15.0,20.0,85,0.00,,---,0.09,VWS V14.00,2013-11-17 17:11:00,
2013-11-17 12:16:00,64.4,59.5,24.97,South,184,28.0,28.0,84,0.00,,---,0.09,VWS V14.00,2013-11-17 17:16:00,
2013-11-17 12:21:00,64.7,59.4,24.97,SSE,168,15.0,28.0,83,0.00,,---,0.09,VWS V14.00,2013-11-17 17:21:00,
2013-11-17 12:26:00,64.8,59.5,24.97,SSE,165,15.0,28.0,83,0.00,,---,0.09,VWS V14.00,2013-11-17 17:26:00,
2013-11-17 12:30:00,64.8,59.5,24.97,South,173,17.0,28.0,83,0.00,,---,0.09,VWS V14.00,2013-11-17 17:30:00,
2013-11-17 12:31:00,64.7,59.4,24.97,South,175,17.0,28.0,83,0.00,,---,0.09,VWS V14.00,2013-11-17 17:31:00,
2013-11-17 12:36:00,64.8,59.5,24.97,South,177,12.0,28.0,83,0.00,,---,0.09,VWS V14.00,2013-11-17 17:36:00,
2013-11-17 12:41:00,64.9,59.6,24.97,South,190,21.0,21.0,83,0.00,,---,0.09,VWS V14.00,2013-11-17 17:41:00,
2013-11-17 12:46:00,65.4,60.1,24.97,South,187,21.0,26.0,83,0.00,,---,0.09,VWS V14.00,2013-11-17 17:46:00,
2013-11-17 12:51:00,65.6,60.0,24.97,SSE,161,15.0,26.0,82,0.00,,---,0.09,VWS V14.00,2013-11-17 17:51:00,
2013-11-17 12:56:00,65.6,60.3,24.97,SSE,163,15.0,26.0,83,0.00,,---,0.09,VWS V14.00,2013-11-17 17:56:00,
2013-11-17 13:00:00,65.8,59.8,24.97,SSE,165,20.0,32.0,81,0.00,,---,0.09,VWS V14.00,2013-11-17 18:00:00,
2013-11-17 13:01:00,65.9,60.3,24.97,South,180,21.0,32.0,82,0.00,,---,0.09,VWS V14.00,2013-11-17 18:01:00,
2013-11-17 13:07:00,65.8,60.2,24.97,South,180,21.0,32.0,82,0.00,,---,0.09,VWS V14.00,2013-11-17 18:07:00,
2013-11-17 13:12:00,65.4,59.1,24.97,SSE,168,21.0,26.0,80,0.00,,---,0.09,VWS V14.00,2013-11-17 18:12:00,
2013-11-17 13:17:00,65.0,59.0,24.97,SSE,164,23.0,29.0,81,0.00,,---,0.09,VWS V14.00,2013-11-17 18:17:00,
2013-11-17 13:22:00,65.5,60.2,24.97,SSE,162,14.0,32.0,83,0.00,,---,0.09,VWS V14.00,2013-11-17 18:22:00,
2013-11-17 13:27:00,65.3,59.7,24.97,SSE,161,13.0,32.0,82,0.00,,---,0.09,VWS V14.00,2013-11-17 18:27:00,
2013-11-17 13:30:00,65.7,59.7,24.97,SSE,165,19.0,32.0,81,0.00,,---,0.09,VWS V14.00,2013-11-17 18:30:00,
2013-11-17 13:32:00,65.6,60.0,24.97,South,176,23.0,32.0,82,0.00,,---,0.09,VWS V14.00,2013-11-17 18:32:00,
2013-11-17 13:37:00,65.7,59.4,24.97,SSE,153,15.0,32.0,80,0.00,,---,0.09,VWS V14.00,2013-11-17 18:37:00,
2013-11-17 13:42:00,66.3,60.0,24.97,South,171,18.0,33.0,80,0.00,,---,0.09,VWS V14.00,2013-11-17 18:42:00,
2013-11-17 13:47:00,65.8,60.2,24.97,South,186,19.0,33.0,82,0.00,,---,0.09,VWS V14.00,2013-11-17 18:47:00,
2013-11-17 13:52:00,65.7,60.4,24.97,South,173,15.0,33.0,83,0.00,,---,0.09,VWS V14.00,2013-11-17 18:52:00,
2013-11-17 13:58:00,65.7,60.4,24.97,South,174,17.0,33.0,83,0.00,,---,0.09,VWS V14.00,2013-11-17 18:58:00,
2013-11-17 14:00:00,66.0,60.7,24.97,South,169,16.0,33.0,83,0.00,,---,0.09,VWS V14.00,2013-11-17 19:00:00,
2013-11-17 14:03:00,65.9,60.6,24.97,SSE,167,22.0,33.0,83,0.00,,---,0.09,VWS V14.00,2013-11-17 19:03:00,
2013-11-17 14:08:00,65.9,60.6,24.97,South,186,24.0,33.0,83,0.00,,---,0.09,VWS V14.00,2013-11-17 19:08:00,
2013-11-17 14:13:00,65.9,60.6,24.97,South,171,22.0,28.0,83,0.00,,---,0.09,VWS V14.00,2013-11-17 19:13:00,
2013-11-17 14:18:00,66.1,60.5,24.97,SSE,153,16.0,28.0,82,0.00,,---,0.09,VWS V14.00,2013-11-17 19:18:00,
2013-11-17 14:23:00,66.2,60.2,24.97,SSE,157,23.0,28.0,81,0.00,,---,0.09,VWS V14.00,2013-11-17 19:23:00,
2013-11-17 14:28:00,66.2,60.9,24.97,South,169,19.0,30.0,83,0.00,,---,0.09,VWS V14.00,2013-11-17 19:28:00,
2013-11-17 14:30:00,65.8,60.5,24.97,South,171,20.0,30.0,83,0.00,,---,0.09,VWS V14.00,2013-11-17 19:30:00,
2013-11-17 14:33:00,65.7,60.1,24.97,SSE,163,19.0,30.0,82,0.00,,---,0.09,VWS V14.00,2013-11-17 19:33:00,
2013-11-17 14:38:00,65.8,60.5,24.97,South,171,20.0,30.0,83,0.00,,---,0.09,VWS V14.00,2013-11-17 19:38:00,
2013-11-17 14:43:00,65.3,60.0,24.97,SSE,161,19.0,29.0,83,0.00,,---,0.09,VWS V14.00,2013-11-17 19:43:00,
2013-11-17 14:48:00,65.1,60.2,24.97,SSE,152,19.0,29.0,84,0.00,,---,0.09,VWS V14.00,2013-11-17 19:48:00,
2013-11-17 14:53:00,65.2,60.2,24.97,SSE,164,12.0,32.0,84,0.00,,---,0.09,VWS V14.00,2013-11-17 19:53:00,
2013-11-17 14:58:00,65.7,61.1,24.97,South,179,20.0,32.0,85,0.00,,---,0.09,VWS V14.00,2013-11-17 19:58:00,
2013-11-17 15:00:00,66.4,61.1,24.97,SSE,161,11.0,32.0,83,0.00,,---,0.09,VWS V14.00,2013-11-17 20:00:00,
2013-11-17 15:03:00,66.4,61.1,24.97,South,171,14.0,32.0,83,0.00,,---,0.09,VWS V14.00,2013-11-17 20:03:00,
2013-11-17 15:08:00,66.4,61.1,24.97,South,185,13.0,14.0,83,0.00,,---,0.09,VWS V14.00,2013-11-17 20:08:00,
2013-11-17 15:13:00,66.6,61.3,24.97,SSW,196,21.0,25.0,83,0.00,,---,0.09,VWS V14.00,2013-11-17 20:13:00,
2013-11-17 15:19:00,66.6,61.3,24.97,SSE,166,13.0,25.0,83,0.00,,---,0.09,VWS V14.00,2013-11-17 20:19:00,
2013-11-17 15:24:00,66.8,61.1,24.97,South,175,16.0,29.0,82,0.00,,---,0.09,VWS V14.00,2013-11-17 20:24:00,
2013-11-17 15:29:00,67.0,61.3,24.97,SSE,168,16.0,29.0,82,0.00,,---,0.09,VWS V14.00,2013-11-17 20:29:00,
2013-11-17 15:30:00,67.2,61.5,24.97,South,179,15.0,29.0,82,0.00,,---,0.09,VWS V14.00,2013-11-17 20:30:00,
2013-11-17 15:34:00,67.0,61.7,24.97,SSW,194,15.0,29.0,83,0.00,,---,0.09,VWS V14.00,2013-11-17 20:34:00,
2013-11-17 15:39:00,67.2,61.5,24.97,South,184,18.0,21.0,82,0.00,,---,0.09,VWS V14.00,2013-11-17 20:39:00,
2013-11-17 15:44:00,67.4,61.7,24.97,SSW,198,13.0,30.0,82,0.00,,---,0.09,VWS V14.00,2013-11-17 20:44:00,
2013-11-17 15:49:00,67.4,62.1,24.97,SSE,150,15.0,30.0,83,0.00,,---,0.09,VWS V14.00,2013-11-17 20:49:00,
2013-11-17 15:54:00,67.0,61.7,24.97,SSE,168,10.0,30.0,83,0.00,,---,0.09,VWS V14.00,2013-11-17 20:54:00,
2013-11-17 15:59:00,67.0,61.7,24.97,SSE,167,17.0,30.0,83,0.00,,---,0.09,VWS V14.00,2013-11-17 20:59:00,
2013-11-17 16:00:00,66.9,61.9,24.97,South,179,14.0,30.0,84,0.00,,---,0.09,VWS V14.00,2013-11-17 21:00:00,
2013-11-17 16:04:00,67.1,62.1,24.97,South,182,16.0,30.0,84,0.00,,---,0.09,VWS V14.00,2013-11-17 21:04:00,
2013-11-17 16:09:00,66.9,61.6,24.97,South,173,11.0,18.0,83,0.00,,---,0.09,VWS V14.00,2013-11-17 21:09:00,
2013-11-17 16:14:00,67.2,61.9,24.97,SSE,159,17.0,22.0,83,0.00,,---,0.09,VWS V14.00,2013-11-17 21:14:00,
2013-11-17 16:19:00,67.4,61.7,24.97,SE,134,11.0,22.0,82,0.00,,---,0.09,VWS V14.00,2013-11-17 21:19:00,
2013-11-17 16:24:00,67.4,61.7,24.97,SE,141,8.0,22.0,82,0.00,,---,0.09,VWS V14.00,2013-11-17 21:24:00,
2013-11-17 16:29:00,67.9,61.9,24.97,SSE,151,12.0,22.0,81,0.00,,---,0.09,VWS V14.00,2013-11-17 21:29:00,
2013-11-17 16:30:00,68.4,62.0,24.97,SSE,158,11.0,22.0,80,0.00,,---,0.09,VWS V14.00,2013-11-17 21:30:00,
2013-11-17 16:35:00,68.2,62.2,24.97,SSE,165,12.0,22.0,81,0.00,,---,0.09,VWS V14.00,2013-11-17 21:35:00,
2013-11-17 16:41:00,68.6,62.2,24.97,South,188,8.0,14.0,80,0.00,,---,0.09,VWS V14.00,2013-11-17 21:41:00,
2013-11-17 16:46:00,68.8,62.4,24.97,South,171,9.0,33.0,80,0.00,,---,0.09,VWS V14.00,2013-11-17 21:46:00,
2013-11-17 16:51:00,64.9,57.2,24.97,SSE,165,13.0,33.0,76,0.00,,---,0.09,VWS V14.00,2013-11-17 21:51:00,
2013-11-17 16:56:00,61.6,55.4,24.97,WNW,288,6.0,33.0,80,0.00,,---,0.09,VWS V14.00,2013-11-17 21:56:00,
2013-11-17 17:00:00,60.0,55.2,24.97,SSW,194,7.0,33.0,84,0.00,,---,0.09,VWS V14.00,2013-11-17 22:00:00,
2013-11-17 17:01:00,60.3,55.1,24.97,South,184,6.0,33.0,83,0.00,,---,0.09,VWS V14.00,2013-11-17 22:01:00,
2013-11-17 17:06:00,60.0,55.2,24.97,South,184,5.0,33.0,84,0.00,,---,0.09,VWS V14.00,2013-11-17 22:06:00,
2013-11-17 17:11:00,60.2,55.3,24.97,SSW,197,13.0,14.0,84,0.00,,---,0.09,VWS V14.00,2013-11-17 22:11:00,
2013-11-17 17:16:00,61.0,55.8,24.97,SSE,153,3.0,21.0,83,0.00,,---,0.09,VWS V14.00,2013-11-17 22:16:00,
2013-11-17 17:21:00,61.6,56.1,24.97,SE,134,6.0,21.0,82,0.00,,---,0.09,VWS V14.00,2013-11-17 22:21:00,
2013-11-17 17:30:00,61.9,56.0,24.97,SE,141,3.0,9.0,81,0.00,,---,0.09,VWS V14.00,2013-11-17 22:30:00,
2013-11-17 18:00:00,63.4,51.4,24.97,WSW,253,6.0,15.0,65,0.00,,---,0.09,VWS V14.00,2013-11-17 23:00:00,
2013-11-17 18:30:00,62.9,47.5,24.97,West,265,1.0,19.0,57,0.00,,---,0.09,VWS V14.00,2013-11-17 23:30:00,
2013-11-17 19:00:00,62.0,46.1,24.97,WNW,287,7.0,19.0,56,0.00,,---,0.09,VWS V14.00,2013-11-18 00:00:00,
2013-11-17 19:30:00,60.9,45.6,24.97,WNW,296,14.0,21.0,57,0.00,,---,0.09,VWS V14.00,2013-11-18 00:30:00,
2013-11-17 20:00:00,59.0,43.3,24.97,West,264,8.0,24.0,56,0.00,,---,0.10,VWS V14.00,2013-11-18 01:00:00,
2013-11-17 20:30:00,57.7,43.0,24.97,SSW,209,4.0,17.0,58,0.00,,---,0.10,VWS V14.00,2013-11-18 01:30:00,
2013-11-17 21:00:00,56.4,42.7,24.97,WSW,256,3.0,9.0,60,0.00,,---,0.10,VWS V14.00,2013-11-18 02:00:00,
2013-11-17 21:30:00,55.9,42.2,29.24,WNW,299,0.0,10.0,60,0.00,,---,0.10,VWS V14.00,2013-11-18 02:30:00,
2013-11-17 22:00:00,55.5,42.3,29.24,West,259,0.0,10.0,61,0.00,,---,0.10,VWS V14.00,2013-11-18 03:00:00,
2013-11-17 22:30:00,54.6,41.9,29.07,WNW,294,0.0,8.0,62,0.00,,---,0.10,VWS V14.00,2013-11-18 03:30:00,
2013-11-17 23:00:00,53.4,41.9,29.66,NW,304,5.0,5.0,65,0.00,,---,0.10,VWS V14.00,2013-11-18 04:00:00,
2013-11-17 23:30:00,54.0,41.7,29.53,SSW,194,2.0,14.0,63,0.00,,---,0.10,VWS V14.00,2013-11-18 04:30:00,